Regional Weather Roundup
Issued by NWS

Home | Current Version | Previous Version | Graphics & Text | Print | Product List | Glossary On
Versions: 1 2 3 4 5 6 7 8 9 10 11 12 13 14 15 16 17 18 19 20 21 22 23 24 25 26 27 28 29 30 31 32 33 34 35 36 37 38 39 40 41 42 43 44 45 46 47 48 49 50
000
ASUS43 KDTX 212101
RWRMI
MICHIGAN HOURLY REGIONAL WEATHER ROUNDUP
NATIONAL WEATHER SERVICE DETROIT/PONTIAC MI
500 PM EDT SAT OCT 21 2017

NOTE: "FAIR" INDICATES FEW OR NO CLOUDS BELOW 12,000 FEET WITH NO
SIGNIFICANT WEATHER AND/OR OBSTRUCTION TO VISIBILITY.

MIZ047>049-052>055-059>063-066>070-074>076-081>083-212200-
SOUTHEAST LOWER MICHIGAN

CITY           SKY/WX    TMP DP  RH WIND       PRES   REMARKS
ADRIAN         CLOUDY    73  51  46 S7        30.16S
ALMA           SUNNY     74  37  26 S13       30.09F
ANN ARBOR      MOSUNNY   72  52  49 S8        30.15S
BAD AXE        MOSUNNY   71  51  48 S13       30.12F
CARO           PTSUNNY   73  47  39 S10G17    30.12R
DETROIT CITY   CLOUDY    70  54  56 SE9       30.17F
DETROIT        CLOUDY    70  55  59 SE8       30.17F
FLINT          SUNNY     73  48  41 S14       30.13S
GROSSE ILE     CLOUDY    67  54  61 SE5       30.16F
HILLSDALE      PTSUNNY   72  46  40 S7G17     30.14S
HOWELL         MOSUNNY   72  48  41 S13G18    30.14S

CITY           SKY/WX    TMP DP  RH WIND       PRES   REMARKS
JACKSON        MOSUNNY   73  47  39 SE15G22   30.14S
LAMBERTVILLE   CLOUDY    74  54  48 S3        30.15F
LANSING        MOSUNNY   74  41  30 S13       30.11F
LAPEER         FAIR      71  51  48 S9G18     30.15S
MASON          MOSUNNY   75  44  32 S10       30.12S
MONROE         CLOUDY    70  55  58 E6        30.15F
MT. CLEMENS    CLOUDY    67  58  71 S8        30.15F
PONTIAC        PTSUNNY   69  56  62 SE8       30.14F
PORT HOPE        N/A     70  55  59 SE9       30.10F
PORT HURON     MOSUNNY   72  54  53 SE8       30.16F
TRI CITIES     MOSUNNY   76  46  34 S12       30.10F
MIDLAND        FAIR      75  40  28 S12G21    30.09R
TROY           CLOUDY    71  53  52 SE8       30.18S
SAGINAW HB     MOSUNNY   73  45  35 S10       30.10S
$$
MIZ043>046-050>051-056>058-064>065-071>073-077>080-212200-
SOUTHWEST LOWER MICHIGAN

CITY           SKY/WX    TMP DP  RH WIND       PRES   REMARKS
BATTLE CREEK   MOSUNNY   74  44  34 S14       30.12S
BENTON HARBOR  MOSUNNY   74  54  49 S12       30.05F
BIG RAPIDS     SUNNY     70  43  37 SE8G16    30.05F
COLDWATER      CLOUDY    74  37  26 S10G17    30.12F
FREMONT        FAIR      73  50  43 S9G20     30.03F
HOLLAND        CLOUDY    73  53  49 S14       30.06S
GRAND RAPIDS   PTSUNNY   72  47  40 S14       30.08S
IONIA          FAIR      75  38  26 S10G21    30.08S
KALAMAZOO      MOSUNNY   73  45  36 S10       30.10S
LUDINGTON      MOSUNNY   72  54  53 S17G24    29.99S
MARSHALL       SUNNY     73  43  33 S8        30.11S
MOUNT PLEASANT MOSUNNY   77  39  24 S9G17     30.07F
MUSKEGON       PTSUNNY   73  53  49 S17G32    30.03F
SOUTH HAVEN    MOSUNNY   75  53  45 S12G17    30.06F
$$
MIZ016>042-212200-
NORTHERN LOWER MICHIGAN

CITY           SKY/WX    TMP DP  RH WIND       PRES   REMARKS
ALPENA         CLOUDY    70  50  49 S9        30.06S
BEAVER ISLAND  CLOUDY    71  46  39 S12       29.98S
BELLAIRE       CLOUDY    74  40  29 S6        30.00R
CADILLAC       MOSUNNY   71  38  29 S12       30.04S
CHARLEVOIX     CLOUDY    73  44  34 S8        30.01S
FRANKFORT      SUNNY     75  51  42 S15G25    29.98R
GAYLORD        PTSUNNY   70  40  33 S14       30.04S
GRAYLING       MOSUNNY   71  38  30 S9G20     30.06S
HARBOR SPRINGS CLOUDY    71  42  35 CALM      29.99F
HOUGHTON LAKE  PTSUNNY   71  41  33 S7        30.07S
MANISTEE       MOSUNNY   74  55  51 S12       29.98S
OSCODA         PTSUNNY   70  47  42 S6        30.09F
PELLSTON       CLOUDY    73  40  30 S5        30.00F
ROGERS CITY    CLOUDY    73  39  28 S8        30.04F
TRAVERSE CITY  CLOUDY    76  41  28 S9G18     29.97F
$$
MIZ007>008-015-212200-
EASTERN UPPER MICHIGAN

CITY           SKY/WX    TMP DP  RH WIND       PRES   REMARKS
KINROSS        CLOUDY    68  48  48 SE14      30.01F
MACKINAC ISLAN MOSUNNY   66  48  52 E7        30.01S
NEWBERRY       CLOUDY    67  47  48 S17       29.96S
S. S. MARIE    CLOUDY    66  50  56 E6        30.00F
MUNISING         N/A     68  54  60 S17G28    29.87S
$$
MIZ004>006-011>014-085-212200-
CENTRAL UPPER MICHIGAN

CITY           SKY/WX    TMP DP  RH WIND       PRES   REMARKS
MANISTIQUE     SUNNY     62  55  75 S8G17     29.96S
ESCANABA       SUNNY     63  55  75 S13       29.92R
SAWYER-GWINN   SUNNY     66  54  63 S17G24    29.87S
$$
MIZ001>003-009>011-084-212200-
WESTERN UPPER MICHIGAN

CITY           SKY/WX    TMP DP  RH WIND       PRES   REMARKS
IRON MOUNTAIN  SUNNY     73  53  49 S10G22    29.84S
HOUGHTON       CLOUDY    65  57  75 SE7       29.76F
COPPER HARBOR    N/A     61  55  81 SW8       29.78R
IRONWOOD       MOSUNNY   66  57  72 S20G29    29.73F
$$

ABBREVIATIONS USED IN REMARKS
   TC - TEMPERATURE IN CELSIUS
  WCI - WIND CHILL INDEX
   HX - HEAT INDEX
  VSB - VISIBILITY





USA.gov is the U.S. government's official web portal to all federal, state and local government web resources and services.